FLOCK 3P-22

Last updated on Wed Feb 14 2018 16:20:18 GMT+0000 (Coordinated Universal Time)

1 41958U 17008L 18044.88120466 .00002256 00000-0 96845-4 0 9996 2 41958 97.4657 110.2992 0010362 69.5977 290.6371 15.23713997 55157

Satellite not in orbit

FLOCK 3P-22